Regional Weather Roundup
Issued by NWS Charleston, SC

Current Version | Previous Version | Graphics & Text | Print | Product List | Glossary On
Versions: 1 2 3 4 5 6 7 8 9 10 11 12 13 14 15 16 17 18 19 20 21 22 23 24 25 26 27 28 29 30 31 32 33 34 35 36 37 38 39 40 41 42 43 44 45 46 47 48 49 50
000
ASUS42 KCHS 271027
RWRCHS
REGIONAL WEATHER ROUNDUP
NATIONAL WEATHER SERVICE CHARLESTON SC
500 AM EST FRI FEB 27 2015

NOTE: "FAIR" INDICATES FEW OR NO CLOUDS BELOW 12,000 FEET WITH NO
SIGNIFICANT WEATHER AND/OR OBSTRUCTIONS TO VISIBILITY.

NOT ALL STATIONS ARE QUALITY CONTROLLED BY THE NATIONAL
WEATHER SERVICE. USE DATA WITH CAUTION...ESPECIALLY
DEWPOINT OBSERVATIONS.

SCZ027-030-031-034>040-042>050-271100-
...SOUTHEAST SOUTH CAROLINA...

CITY           SKY/WX    TMP DP  RH WIND       PRES   REMARKS
N CHARLESTON   MOCLDY    36  33  89 NE6       30.24R WCI  31
WATERFRONT PRK   N/A     39 N/A N/A N12         N/A  WCI  32
MOUNT PLEASANT LGT RAIN  36  36 100 CALM      30.25R
PINOPOLIS        N/A     39  36  87 NE7       30.14R WCI  34
MONCKS CORNER  FAIR      36  34  93 CALM      30.24R
SUMMERVILLE    NOT AVBL
BEAUFORT MCAS  CLOUDY    38  35  89 N7        30.23R WCI  33
BEAUFORT ARPT  FAIR      39  37  93 CALM      30.24R
HILTON HEAD IS NOT AVBL
WALTERBORO     CLOUDY    36  36 100 CALM      30.25R
ALLENDALE      CLOUDY    39  36  87 CALM      30.22S

...SOUTHERN MIDLANDS AND PEE DEE...

CITY           SKY/WX    TMP DP  RH WIND       PRES   REMARKS
GEORGETOWN     NOT AVBL
KINGSTREE      NOT AVBL
ORANGEBURG     MOCLDY    33  31  92 CALM      30.22R FOG
BARNWELL       PTSUNNY   37  36  93 CALM      30.24R
AIKEN          CLOUDY    37  37 100 CALM      30.25R
MANNING        FAIR     N/A N/A N/A CALM      30.23S FOG
COLUMBIA       CLOUDY    36  34  92 CALM      30.23R FOG
SUMTER         MOCLDY    31  29  94 SE1       30.20S
FLORENCE       MOCLDY    33  29  85 SE3       30.23R
MYRTLE BEACH   CLOUDY    36  30  80 N6        30.27R WCI  31
N MYRTLE BEACH CLOUDY    34  31  88 N3        30.23R

$$

GAZ063-065-086>088-099>101-113>116-118-119-134>141-150-271100-
...SOUTHEAST GEORGIA...

CITY           SKY/WX    TMP DP  RH WIND       PRES   REMARKS
SAVANNAH ARPT  CLOUDY    39  35  86 N5        30.23R WCI  36
HUNTER AAF     CLOUDY    40  37  86 NE7       30.20R WCI  36
FORT STEWART   CLOUDY    39  37  94 CALM      30.21R
STATESBORO     CLOUDY    40  40 100 CALM      30.23R
SYLVANIA       PTSUNNY   38  38 100 CALM      30.23R FOG
CLAXTON        FAIR      41  41 100 NE3       30.22S

...CSRA...CENTRAL AND FAR SOUTHEAST GEORGIA...

CITY           SKY/WX    TMP DP  RH WIND       PRES   REMARKS
THOMSON        CLOUDY    40  40 100 CALM      30.27R
AUGUSTA-BUSH   CLOUDY    41  37  86 SE3       30.23R
AUGUSTA-DANIEL CLOUDY    43  37  79 SE5       30.22R
SWAINSBORO     CLOUDY    41  34  75 CALM      30.23R
VIDALIA        CLOUDY    41  37  87 CALM      30.22R
EASTMAN        CLOUDY    38  36  93 CALM      30.26R
HAZLEHURST     CLOUDY    43  40  89 N3        30.21R
ALMA           CLOUDY    44  40  85 N6        30.20R
WAYCROSS       CLOUDY    47  44  91 NE5       30.20R
JESUP          CLOUDY    45  43  93 CALM      30.21S
BAXLEY         CLOUDY    45  43  93 N3        30.20S
BRUNSWICK      CLOUDY    43  41  93 N3        30.21R
SAINT SIMONS   CLOUDY    45  39  79 N7        30.20R

$$

SCZ027-028-034-036>038-045-046-048>050-GAZ119-141-271100-
...LAKE AND SUPPLEMENTAL COASTAL OBSERVATIONS...

STATION/POSITION TIME  TEMP    WIND        PRES    WAVE   SWELL
                       AIR SEA DIR/SP/G            HT/PER HT/PER/DIR
                 (UTC) (F)     (DEG/KT/KT) (MB)    (FT/S) (FT/S/D)
UPR LAKE MARION  NOT AVBL
WINYAH BAY       0900   36     340/  3     1022.0
LAKE MURRAY      1000   38      CALM  /  1 1023.0R
ACE BASIN NERRS  NOT AVBL
FORT PULASKI     1000   42 49   10/  6/  8 1023.9R
SAPELO ISLAND    1000   44      20/  7     1023.0R

$$

ANZ835-935-AMZ111-154-330-350-352-354-370-450-454-472-271100-
...C-MAN AND BUOY OBSERVATIONS...

STATION/POSITION TIME  TEMP    WIND        PRES    WAVE   SWELL
                       AIR SEA DIR/SP/G            HT/PER HT/PER/DIR
                 (UTC) (F)     (DEG/KT/KT) (MB)    (FT/S) (FT/S/D)
BUOY 41004       0950   46 65  360/ 16/ 19 1021.8R   4/ 8   3/ 8
BUOY 41008       0950   46 53   30/ 14/ 19 1022.0R   3/10   2/100/10
FOLLY BEACH CMAN 1000   39      20/ 10/ 12 1024.3R
CAPERS NEARSHORE NOT AVBL
FRIPP NEARSHORE  0900   43      20/ 12/ 14 1021.9R


STATION/POSITION TIME  TEMP    WIND        PRES    WAVE   SWELL
                       AIR SEA DIR/SP/G            HT/PER HT/PER/DIR
                 (UTC) (F)     (DEG/KT/KT) (MB)    (FT/S) (FT/S/D)
5E ST. MARYS GA  0921      53                N/A     4/11   2/120/11
FRYING PAN BUOY  0950   42 60  360/ 14/ 16 1023.4R   5/ 9   3/160/ 9
BUOY 41025       NOT AVBL
CAPE LOOKOUT NC  1000   34      10/ 11/ 13 1022.9R
BUOY 41002       0950   62 70  330/ 12/ 16 1018.7R   9/ 8   8/230/ 8
BUOY 41010       0920   66 74   20/ 12/ 16 1017.2R
ST AUGUSTINE FL  1000   51      10/ 21/ 22 1021.2R


$$


USA.gov is the U.S. government's official web portal to all federal, state and local government web resources and services.